TimeEDT,TemperatureF,Dew PointF,Humidity,Sea Level PressureIn,VisibilityMPH,Wind Direction,Wind SpeedMPH,Gust SpeedMPH,PrecipitationIn,Events,Conditions,WindDirDegrees,DateUTC
12:53 AM,59.0,57.9,96,30.18,10.0,Calm,Calm,-,N/A,,Clear,0,2013-07-30 04:53:00
1:53 AM,59.0,57.9,96,30.18,10.0,Calm,Calm,-,N/A,,Clear,0,2013-07-30 05:53:00
2:53 AM,59.0,57.9,96,30.17,10.0,Calm,Calm,-,N/A,,Clear,0,2013-07-30 06:53:00
3:53 AM,61.0,60.1,97,30.17,10.0,Calm,Calm,-,N/A,,Clear,0,2013-07-30 07:53:00
4:53 AM,64.0,61.0,90,30.17,10.0,Calm,Calm,-,N/A,,Overcast,0,2013-07-30 08:53:00
5:53 AM,64.0,62.1,93,30.17,10.0,Calm,Calm,-,0.01,,Partly Cloudy,0,2013-07-30 09:53:00
6:53 AM,64.0,62.1,93,30.17,10.0,Calm,Calm,-,0.00,,Overcast,0,2013-07-30 10:53:00
7:53 AM,64.9,63.0,93,30.18,10.0,SSE,3.5,-,N/A,,Overcast,160,2013-07-30 11:53:00
8:53 AM,66.0,62.1,87,30.19,10.0,South,3.5,-,N/A,,Overcast,170,2013-07-30 12:53:00
9:53 AM,68.0,60.1,76,30.20,10.0,SSE,3.5,-,N/A,,Partly Cloudy,150,2013-07-30 13:53:00
10:53 AM,-9999,-9999,N/A,30.20,-9999.0,North,-9999.0,-,N/A,,Unknown,0,2013-07-30 14:53:00
11:53 AM,72.0,60.1,66,30.18,-9999.0,SSE,8.1,-,N/A,,Clear,150,2013-07-30 15:53:00
12:53 PM,75.9,60.1,58,30.17,10.0,SE,9.2,-,N/A,,Mostly Cloudy,140,2013-07-30 16:53:00
1:53 PM,77.0,63.0,62,30.16,10.0,Variable,5.8,-,N/A,,Overcast,0,2013-07-30 17:53:00
2:53 PM,75.0,62.1,64,30.15,10.0,South,5.8,-,N/A,,Overcast,170,2013-07-30 18:53:00
3:53 PM,75.0,64.9,71,30.14,10.0,South,4.6,-,0.00,Rain,Light Rain,180,2013-07-30 19:53:00
4:53 PM,73.9,64.9,73,30.12,10.0,South,5.8,-,0.00,Rain,Light Rain,170,2013-07-30 20:53:00
5:53 PM,70.0,66.0,87,30.12,10.0,South,8.1,-,0.01,Rain,Light Rain,180,2013-07-30 21:53:00
6:27 PM,68.0,64.4,88,30.13,5.0,South,4.6,-,0.05,Rain,Light Rain,170,2013-07-30 22:27:00
6:53 PM,69.1,66.0,90,30.11,8.0,SSE,4.6,-,0.06,Rain,Light Rain,150,2013-07-30 22:53:00
7:53 PM,68.0,64.9,90,30.11,10.0,SSE,6.9,-,0.00,,Overcast,160,2013-07-30 23:53:00
8:53 PM,68.0,64.9,90,30.09,10.0,ESE,6.9,-,N/A,,Overcast,120,2013-07-31 00:53:00
9:53 PM,66.9,64.9,93,30.09,10.0,SE,5.8,-,N/A,,Overcast,140,2013-07-31 01:53:00
10:09 PM,66.2,64.4,94,30.11,10.0,SE,5.8,-,N/A,,Overcast,140,2013-07-31 02:09:00
10:53 PM,66.9,64.9,93,30.11,10.0,SE,4.6,-,N/A,,Overcast,140,2013-07-31 02:53:00
11:18 PM,66.2,64.4,94,30.11,10.0,SSE,4.6,-,N/A,,Overcast,150,2013-07-31 03:18:00
11:53 PM,66.0,64.0,93,30.09,10.0,SSE,3.5,-,N/A,,Overcast,150,2013-07-31 03:53:00